Voltar ao catálogo

COSMOS 1750

AtivoNavegaçãoLEO
NORAD 16760·PAYLOAD·🇷🇺 Russia

Lançado Jun 6, 1986 de Plesetsk Cosmodrome

Loading…

Próximas Passagens (próximas 24 horas)

TLE

AtualizadoSource: Space-Track

Época: Sep 14, 2026, 13:47 UTC

1 16760U 86042C   26257.57432037  .00000003  00000-0  11319-3 0  9994
2 16760  74.0217 337.3550 0038878  83.5600 340.8045 12.56168490846830

Acompanhe COSMOS 1750 em tempo real com AllMySat

Download on the App Store